PHENX84 YLTV-YMEN

Flight info

Callsign PHENX84
Flight time 0h 36m
Altitude 2000
Route DRN NRW TOGA MCG BLTB FGN
Aircraft C172/L-SFG/C

Departure

Time 2026-05-01 13:33
Airport Latrobe Valley Airport (YLTV)

Arrival

Time 2026-05-01 14:09
Airport Melbourne Essendon Airport (YMEN)
Time Latitude Longitude Altitude Speed Heading
2026-05-01 13:26 -38.20991 146.47514 182 ft 0 kts 44°
2026-05-01 13:27 -38.20996 146.47480 180 ft 6 kts 234°
2026-05-01 13:28 -38.21040 146.47421 181 ft 4 kts 226°
2026-05-01 13:28 -38.21062 146.47393 181 ft 5 kts 224°
2026-05-01 13:29 -38.21155 146.47272 181 ft 16 kts 223°
2026-05-01 13:29 -38.21221 146.47077 181 ft 11 kts 278°
2026-05-01 13:30 -38.21414 146.46687 182 ft 22 kts 224°
2026-05-01 13:31 -38.21537 146.46523 180 ft 3 kts 139°
2026-05-01 13:31 -38.21527 146.46544 180 ft 0 kts 45°
2026-05-01 13:33 -38.20702 146.47252 418 ft 78 kts 343°
2026-05-01 13:33 -38.20282 146.45997 784 ft 95 kts 276°
2026-05-01 13:34 -38.20173 146.44537 1369 ft 80 kts 279°
2026-05-01 13:34 -38.20107 146.43122 1821 ft 81 kts 279°
2026-05-01 13:35 -38.20074 146.41686 2229 ft 82 kts 279°
2026-05-01 13:35 -38.20050 146.40877 2264 ft 101 kts 279°
2026-05-01 13:35 -38.19950 146.38987 2257 ft 111 kts 282°
2026-05-01 13:36 -38.19855 146.38010 2258 ft 112 kts 284°
2026-05-01 13:36 -38.19743 146.37027 2258 ft 113 kts 284°
2026-05-01 13:36 -38.19503 146.35065 2257 ft 112 kts 285°
2026-05-01 13:37 -38.19365 146.34088 2256 ft 112 kts 286°
2026-05-01 13:37 -38.19273 146.33442 2254 ft 112 kts 285°
2026-05-01 13:37 -38.19093 146.32160 2249 ft 109 kts 286°
2026-05-01 13:37 -38.18956 146.31208 2258 ft 110 kts 285°
2026-05-01 13:38 -38.18658 146.29283 2255 ft 113 kts 286°
2026-05-01 13:38 -38.18502 146.28297 2256 ft 114 kts 286°
2026-05-01 13:38 -38.18343 146.27314 2255 ft 114 kts 286°
2026-05-01 13:39 -38.18186 146.26320 2255 ft 115 kts 286°
2026-05-01 13:39 -38.18118 146.25890 2254 ft 114 kts 286°
2026-05-01 13:39 -38.17964 146.24899 2252 ft 114 kts 286°
2026-05-01 13:39 -38.17808 146.23911 2249 ft 114 kts 286°
2026-05-01 13:40 -38.17710 146.22913 2244 ft 114 kts 278°
2026-05-01 13:40 -38.17631 146.21921 2244 ft 112 kts 281°
2026-05-01 13:40 -38.17535 146.20933 2244 ft 113 kts 282°
2026-05-01 13:40 -38.17427 146.19939 2244 ft 113 kts 283°
2026-05-01 13:41 -38.17316 146.18952 2249 ft 113 kts 283°
2026-05-01 13:41 -38.17202 146.17960 2248 ft 113 kts 283°
2026-05-01 13:41 -38.17087 146.16969 2249 ft 114 kts 283°
2026-05-01 13:41 -38.16971 146.15973 2251 ft 114 kts 283°
2026-05-01 13:42 -38.16856 146.14971 2245 ft 114 kts 283°
2026-05-01 13:42 -38.16779 146.14315 2244 ft 113 kts 283°
2026-05-01 13:42 -38.16625 146.12994 2246 ft 114 kts 283°
2026-05-01 13:42 -38.16510 146.12015 2242 ft 113 kts 284°
2026-05-01 13:43 -38.16393 146.11013 2227 ft 114 kts 281°
2026-05-01 13:43 -38.16275 146.09996 2113 ft 121 kts 279°
2026-05-01 13:43 -38.16190 146.09273 2008 ft 123 kts 279°
2026-05-01 13:43 -38.16065 146.08211 1998 ft 121 kts 278°
2026-05-01 13:44 -38.15944 146.07135 1996 ft 130 kts 278°
2026-05-01 13:44 -38.15810 146.05957 1948 ft 145 kts 275°
2026-05-01 13:44 -38.15660 146.04660 1990 ft 152 kts 278°
2026-05-01 13:44 -38.15517 146.03302 2003 ft 158 kts 281°
2026-05-01 13:45 -38.15329 146.01930 2006 ft 158 kts 279°
2026-05-01 13:45 -38.15158 146.00544 1978 ft 161 kts 277°
2026-05-01 13:45 -38.14998 145.99142 1992 ft 161 kts 277°
2026-05-01 13:45 -38.14840 145.97751 1993 ft 157 kts 278°
2026-05-01 13:46 -38.14678 145.96394 2001 ft 159 kts 278°
2026-05-01 13:46 -38.14508 145.94979 2012 ft 162 kts 277°
2026-05-01 13:46 -38.14362 145.93589 2009 ft 160 kts 278°
2026-05-01 13:46 -38.14190 145.92173 1952 ft 153 kts 274°
2026-05-01 13:47 -38.13998 145.90856 2052 ft 152 kts 279°
2026-05-01 13:47 -38.13859 145.89481 2009 ft 154 kts 275°
2026-05-01 13:47 -38.13692 145.88112 1972 ft 161 kts 277°
2026-05-01 13:47 -38.13538 145.86756 2012 ft 154 kts 279°
2026-05-01 13:48 -38.13372 145.85384 2009 ft 160 kts 279°
2026-05-01 13:48 -38.13120 145.84015 2005 ft 159 kts 289°
2026-05-01 13:48 -38.12826 145.82643 2003 ft 164 kts 288°
2026-05-01 13:48 -38.12535 145.81238 2008 ft 165 kts 288°
2026-05-01 13:49 -38.12238 145.79829 2006 ft 166 kts 288°
2026-05-01 13:49 -38.11948 145.78416 2003 ft 165 kts 288°
2026-05-01 13:49 -38.11650 145.77006 2004 ft 166 kts 288°
2026-05-01 13:49 -38.11351 145.75588 2005 ft 167 kts 288°
2026-05-01 13:50 -38.11049 145.74159 2006 ft 168 kts 288°
2026-05-01 13:50 -38.10746 145.72721 2006 ft 169 kts 288°
2026-05-01 13:50 -38.10441 145.71275 2005 ft 170 kts 287°
2026-05-01 13:50 -38.10136 145.69824 2005 ft 170 kts 288°
2026-05-01 13:51 -38.09831 145.68375 2006 ft 170 kts 287°
2026-05-01 13:51 -38.09523 145.66923 2007 ft 170 kts 287°
2026-05-01 13:51 -38.09215 145.65462 2002 ft 172 kts 287°
2026-05-01 13:51 -38.08904 145.64000 1999 ft 170 kts 288°
2026-05-01 13:52 -38.08596 145.62548 2004 ft 171 kts 287°
2026-05-01 13:52 -38.08289 145.61091 2005 ft 171 kts 288°
2026-05-01 13:52 -38.07981 145.59633 2003 ft 171 kts 287°
2026-05-01 13:52 -38.07674 145.58176 2004 ft 171 kts 288°
2026-05-01 13:53 -38.07365 145.56721 2003 ft 171 kts 288°
2026-05-01 13:53 -38.06754 145.53825 2001 ft 168 kts 288°
2026-05-01 13:53 -38.06444 145.52393 1984 ft 169 kts 288°
2026-05-01 13:54 -38.06141 145.50960 1992 ft 171 kts 289°
2026-05-01 13:54 -38.05840 145.49525 2003 ft 167 kts 289°
2026-05-01 13:54 -38.05526 145.48102 2042 ft 170 kts 290°
2026-05-01 13:54 -38.05209 145.46628 1995 ft 173 kts 284°
2026-05-01 13:55 -38.04915 145.45154 2017 ft 172 kts 288°
2026-05-01 13:55 -38.04591 145.43694 1997 ft 171 kts 287°
2026-05-01 13:55 -38.04277 145.42227 1954 ft 173 kts 287°
2026-05-01 13:55 -38.03964 145.40779 1993 ft 171 kts 287°
2026-05-01 13:56 -38.03632 145.39319 1937 ft 177 kts 286°
2026-05-01 13:56 -38.03352 145.37825 1930 ft 164 kts 284°
2026-05-01 13:56 -38.03043 145.36468 1990 ft 162 kts 288°
2026-05-01 13:56 -38.02746 145.35080 1963 ft 165 kts 286°
2026-05-01 13:57 -38.02454 145.33711 2002 ft 161 kts 287°
2026-05-01 13:57 -38.02130 145.32361 2004 ft 159 kts 284°
2026-05-01 13:57 -38.01774 145.31051 1993 ft 155 kts 314°
2026-05-01 13:57 -38.01157 145.30015 2005 ft 152 kts 320°
2026-05-01 13:58 -38.00527 145.28895 1996 ft 159 kts 307°
2026-05-01 13:58 -37.99907 145.27701 2009 ft 166 kts 307°
2026-05-01 13:58 -37.99270 145.26475 2010 ft 168 kts 306°
2026-05-01 13:58 -37.98625 145.25227 2004 ft 170 kts 307°
2026-05-01 13:59 -37.97976 145.23973 2001 ft 168 kts 307°
2026-05-01 13:59 -37.97342 145.22734 2000 ft 167 kts 307°
2026-05-01 13:59 -37.96700 145.21498 2005 ft 169 kts 307°
2026-05-01 13:59 -37.96052 145.20246 2005 ft 171 kts 307°
2026-05-01 14:00 -37.95401 145.18986 2000 ft 171 kts 307°
2026-05-01 14:00 -37.94747 145.17721 1997 ft 172 kts 306°
2026-05-01 14:00 -37.94093 145.16461 2001 ft 171 kts 307°
2026-05-01 14:00 -37.93438 145.15200 2002 ft 171 kts 307°
2026-05-01 14:01 -37.92789 145.13943 2005 ft 171 kts 307°
2026-05-01 14:01 -37.92140 145.12691 2006 ft 170 kts 306°
2026-05-01 14:01 -37.91505 145.11465 2003 ft 168 kts 306°
2026-05-01 14:01 -37.90881 145.10226 1999 ft 164 kts 309°
2026-05-01 14:02 -37.90235 145.09038 1996 ft 163 kts 306°
2026-05-01 14:02 -37.89622 145.07838 1994 ft 162 kts 306°
2026-05-01 14:02 -37.89003 145.06645 1997 ft 163 kts 307°
2026-05-01 14:02 -37.88378 145.05443 1997 ft 164 kts 306°
2026-05-01 14:03 -37.87750 145.04235 1998 ft 164 kts 306°
2026-05-01 14:03 -37.87128 145.03032 1995 ft 163 kts 306°
2026-05-01 14:03 -37.86505 145.01835 1990 ft 163 kts 306°
2026-05-01 14:03 -37.85888 145.00645 1994 ft 161 kts 307°
2026-05-01 14:04 -37.85275 144.99469 1992 ft 160 kts 307°
2026-05-01 14:04 -37.84664 144.98293 1991 ft 160 kts 307°
2026-05-01 14:04 -37.84052 144.97122 1994 ft 160 kts 307°
2026-05-01 14:04 -37.83660 144.96380 2057 ft 150 kts 314°
2026-05-01 14:05 -37.83014 144.95121 2125 ft 118 kts 319°
2026-05-01 14:05 -37.82574 144.94278 1964 ft 108 kts 319°
2026-05-01 14:05 -37.82122 144.93459 1414 ft 116 kts 320°
2026-05-01 14:05 -37.81510 144.92815 999 ft 114 kts 335°
2026-05-01 14:06 -37.80885 144.92347 970 ft 96 kts 335°
2026-05-01 14:06 -37.80341 144.91932 979 ft 91 kts 336°
2026-05-01 14:06 -37.79797 144.91527 984 ft 92 kts 336°
2026-05-01 14:06 -37.79232 144.91137 989 ft 92 kts 347°
2026-05-01 14:07 -37.78622 144.90955 987 ft 90 kts 350°
2026-05-01 14:07 -37.78016 144.90779 989 ft 90 kts 351°
2026-05-01 14:07 -37.77398 144.90590 988 ft 91 kts 352°
2026-05-01 14:08 -37.76162 144.90260 803 ft 95 kts 356°
2026-05-01 14:08 -37.75516 144.90228 738 ft 91 kts
2026-05-01 14:08 -37.74889 144.90205 634 ft 86 kts 355°
2026-05-01 14:08 -37.74350 144.90168 512 ft 71 kts 358°
2026-05-01 14:09 -37.73855 144.90146 413 ft 70 kts
2026-05-01 14:09 -37.73366 144.90136 285 ft 71 kts 356°
2026-05-01 14:09 -37.72908 144.90112 258 ft 56 kts
2026-05-01 14:09 -37.72677 144.90107 261 ft 23 kts 358°
2026-05-01 14:10 -37.72561 144.90077 268 ft 13 kts 284°
2026-05-01 14:10 -37.72573 144.89986 268 ft 11 kts 207°
2026-05-01 14:10 -37.72608 144.89907 267 ft 10 kts 242°
2026-05-01 14:10 -37.72614 144.89870 267 ft 0 kts 268°